Location: Newark
(44.3681°N, 100.3364°W)
Time: 21:26:33
(UTC+00:00)

SR - Pass Details

Date: 04 March 2020
Orbit: 578 x 877 km, 66.7° (Epoch: 09 April)

Event Time Altitude Azimuth Distance (km) Brightness Sun altitude
Rises 04:13:54 0° 327° (NNW) 3,256 ? -38.5°
Reaches altitude 10° 04:16:25 10° 326° (NNW) 2,277 ? -38.9°
Enters shadow 04:17:46 18° 326° (NW) 1,759 ? -39.1°
